User: anonymous   Login
Location: Bagnara
(41.0500°N, 14.7833°E)
Time: 06:16:42
(UTC+00:00)
Language:

CZ-4C R/B - Orbit

View from above orbital plane
View from above orbital plane
View from above satellite
View from above satellite

Ground track
Ground track

The orbit data is extracted from the following two-line orbital elements,

1 39211U 13037D   21260.38867494  .00001085  00000-0  66959-4 0  9993
2 39211  98.0358  53.1820 0123715 104.8870 256.6095 15.06123381447960
Epoch (UTC): 17 September 2021 09:19:41
Eccentricity: 0.0123715
inclination: 98.0358°
perigee height: 462 km
apogee height: 634 km
right ascension of ascending node: 53.1820°
argument of perigee: 104.8870°
revolutions per day: 15.06123381
mean anomaly at epoch: 256.6095°
orbit number at epoch: 44796

The dashed part of the orbit path shows where the satellite is in the earth's shadow,  

DLR